Probability
58 61 58 48 48 42 52 39 23 3 10 26 35 32 23 35 16 10 23 3 3 0 0 0 3 3 3 3 0 0 0 0 0 0 0 0 3 3
58 58 58 52 48 52 42 42 32 16 13 23 26 23 26 16 13 16 23 6 0 0 0 0 0 0 0 0 0 0 0 0 0 0 0 0 0 0
42 45 48 48 42 42 42 39 42 29 10 13 23 26 29 26 10 16 16 10 10 0 0 0 0 0 0 0 0 0 0 0 0 0 0 0 0 0
45 48 42 42 45 42 32 29 35 26 19 10 16 13 19 13 16 13 6 6 6 0 0 0 0 0 0 0 0 0 0 0 0 0 0 0 0 0
39 42 39 32 39 39 35 29 32 23 29 19 16 19 19 6 6 10 10 10 6 0 0 0 0 0 0 0 0 0 0 0 0 0 0 0 0 0
32 35 32 32 32 32 19 26 26 26 32 16 13 10 10 3 6 6 3 6 6 0 0 0 0 0 0 0 0 0 0 0 0 0 0 0 0 0
35 35 29 13 10 10 10 16 16 16 19 13 13 13 10 6 3 3 3 3 3 3 3 3 0 0 0 0 0 0 0 0 0 0 0 0 0 0
29 29 19 10 6 0 6 6 6 6 6 10 10 6 6 3 3 3 3 3 3 3 3 3 3 3 0 0 0 0 0 0 0 0 0 0 0 0
19 23 10 3 3 6 0 0 0 0 0 3 3 6 6 3 0 3 3 3 3 3 3 3 3 3 3 3 0 0 0 0 0 0 0 0 0 0
16 16 10 6 3 3 3 6 3 0 0 0 3 3 3 0 0 0 0 0 3 3 0 0 0 3 0 0 0 0 0 0 0 0 0 0 0 0
3 3 3 3 0 0 0 3 3 0 0 0 0 0 0 0 0 0 0 0 0 0 0 0 0 0 0 0 0 0 0 0 0 0 0 0 0 0
3 3 0 0 0 0 0 0 0 0 0 0 0 0 0 0 0 0 0 0 0 0 0 0 0 0 0 0 0 0 0 0 0 0 0 0 0 0
6 0 0 0 0 0 0 0 0 0 0 0 0 0 0 0 0 0 0 0 0 0 0 0 0 0 0 0 0 0 0 0 0 0 0 0 0 0
0 0 0 0 0 0 0 0 0 0 0 0 0 0 0 0 0 0 0 0 0 0 0 0 0 0 0 0 0 0 0 0 0 0 0 0 0 0
0 0 0 0 0 0 0 0 0 0 0 0 0 0 0 0 0 0 0 0 0 0 0 0 0 0 0 0 0 0 0 0 0 0 0 0 0 0
0 0 0 0 0 0 0 0 0 0 0 0 0 0 0 0 0 0 0 0 0 0 0 0 0 0 0 0 0 0 0 0 0 0 0 0 0 0
0 0 0 0 0 0 0 0 0 0 0 0 0 0 0 0 0 0 0 0 0 0 0 0 0 0 0 0 0 0 0 0 0 0 0 0 0 0
0 0 0 0 0 0 0 0 0 0 0 0 0 0 0 0 0 0 0 0 0 0 0 0 0 0 0 0 0 0 0 0 0 0 0 0 0 0
0 0 0 0 0 0 0 0 0 0 0 0 0 0 0 0 0 0 0 0 0 0 0 0 0 0 0 0 0 0 0 0 0 0 0 0 0 0
0 0 0 0 0 0 0 0 0 0 0 0 0 0 0 0 0 0 0 0 0 0 0 0 0 0 0 0 0 0 0 0 0 0 0 0 0 0
0 0 0 0 0 0 0 0 0 0 0 0 0 0 0 0 0 0 0 0 0 0 0 0 0 0 0 0 0 0 0 0 0 0 0 0 0 0
0 0 0 0 0 0 0 0 0 0 0 0 0 0 0 0 0 0 0 0 0 0 0 0 0 0 0 0 0 0 0 0 0 0 0 0 0 0
0 0 0 0 0 0 0 0 0 0 0 0 0 0 0 0 0 0 0 0 0 0 0 0 0 0 0 0 0 0 0 0 0 0 0 0 0 0
Height
5885 5885 5884 5884 5883 5883 5882 5882 5882 5881 5880 5879 5878 5876 5874 5874 5873 5872 5872 5872 5871 5870 5869 5868 5867 5866 5865 5864 5863 5862 5861 5860 5859 5858 5857 5856 5855 5855
5881 5881 5880 5879 5879 5878 5878 5877 5876 5875 5875 5873 5872 5870 5869 5868 5867 5867 5866 5864 5863 5863 5862 5861 5860 5859 5858 5857 5855 5854 5852 5851 5850 5849 5848 5847 5846 5846
5878 5877 5876 5876 5875 5874 5873 5872 5871 5870 5868 5867 5865 5864 5863 5862 5861 5860 5859 5857 5856 5855 5854 5853 5852 5850 5849 5848 5846 5845 5844 5842 5841 5839 5839 5837 5837 5836
5874 5873 5872 5871 5870 5869 5868 5867 5865 5864 5863 5861 5859 5858 5857 5856 5854 5852 5851 5850 5849 5848 5846 5845 5843 5842 5840 5839 5837 5836 5834 5833 5832 5830 5829 5828 5827 5826
5869 5868 5867 5867 5866 5864 5863 5862 5860 5859 5857 5856 5855 5853 5851 5849 5847 5845 5844 5843 5841 5840 5838 5836 5835 5833 5831 5829 5828 5826 5824 5823 5822 5820 5819 5818 5817 5815
5865 5864 5863 5862 5861 5860 5858 5857 5855 5853 5852 5850 5849 5847 5845 5843 5841 5839 5837 5835 5833 5831 5829 5827 5826 5824 5822 5820 5818 5816 5814 5813 5811 5810 5808 5807 5806 5804
5861 5860 5858 5857 5856 5855 5853 5851 5849 5848 5846 5844 5842 5840 5838 5836 5834 5832 5830 5828 5826 5823 5821 5819 5817 5815 5812 5810 5808 5806 5804 5802 5801 5799 5798 5796 5794 5793
5856 5855 5854 5852 5851 5849 5847 5845 5843 5841 5839 5837 5835 5833 5831 5828 5826 5824 5822 5820 5818 5816 5813 5811 5808 5805 5803 5800 5798 5796 5794 5792 5790 5788 5786 5784 5783 5781
5851 5850 5848 5847 5845 5843 5841 5839 5837 5834 5832 5830 5828 5825 5823 5821 5818 5816 5813 5811 5809 5806 5804 5801 5799 5796 5793 5790 5788 5786 5783 5781 5779 5777 5775 5773 5771 5769
5846 5844 5843 5841 5839 5837 5835 5832 5830 5828 5825 5823 5821 5818 5815 5813 5810 5808 5805 5803 5800 5797 5794 5792 5789 5786 5783 5780 5777 5775 5772 5770 5767 5765 5763 5761 5759 5757
5841 5839 5837 5835 5833 5831 5828 5826 5823 5821 5818 5815 5813 5810 5808 5805 5802 5799 5797 5794 5791 5788 5785 5782 5779 5776 5773 5770 5767 5764 5761 5759 5756 5753 5751 5749 5746 5744
5836 5834 5832 5829 5826 5824 5821 5819 5816 5813 5811 5808 5806 5803 5800 5797 5793 5791 5787 5784 5781 5778 5775 5771 5768 5765 5763 5759 5756 5753 5751 5748 5745 5742 5739 5736 5734 5732
5831 5828 5825 5823 5820 5818 5815 5812 5809 5806 5803 5801 5798 5795 5791 5788 5784 5781 5777 5774 5771 5767 5764 5761 5758 5754 5752 5749 5746 5743 5740 5737 5734 5731 5728 5725 5723 5720
5825 5822 5819 5817 5814 5811 5808 5806 5802 5799 5796 5792 5789 5786 5782 5779 5775 5771 5767 5764 5760 5757 5754 5750 5747 5744 5741 5738 5735 5732 5728 5725 5723 5720 5717 5714 5711 5708
5819 5816 5813 5810 5807 5804 5801 5798 5795 5791 5787 5784 5780 5777 5773 5769 5765 5761 5757 5754 5750 5747 5744 5740 5737 5733 5730 5727 5724 5721 5718 5714 5711 5708 5705 5703 5700 5697
5812 5809 5806 5803 5800 5797 5794 5790 5786 5783 5779 5775 5771 5767 5763 5759 5755 5752 5748 5745 5741 5737 5734 5730 5726 5723 5719 5716 5713 5710 5706 5703 5700 5697 5694 5691 5689 5686
5806 5803 5800 5797 5793 5790 5786 5782 5778 5774 5770 5766 5762 5758 5754 5750 5746 5742 5738 5734 5731 5727 5723 5719 5716 5712 5709 5706 5702 5699 5696 5692 5690 5687 5684 5681 5679 5676
5799 5795 5792 5789 5785 5782 5778 5774 5770 5765 5761 5757 5753 5748 5744 5740 5736 5732 5728 5724 5720 5716 5713 5709 5705 5702 5698 5695 5692 5688 5685 5682 5679 5677 5674 5671 5669 5666
5791 5788 5784 5781 5777 5773 5769 5765 5761 5756 5752 5748 5744 5739 5735 5731 5727 5722 5718 5714 5710 5706 5702 5698 5695 5691 5688 5685 5682 5678 5675 5672 5670 5667 5664 5661 5659 5656
5783 5779 5776 5772 5768 5764 5760 5756 5752 5748 5743 5739 5735 5730 5726 5722 5717 5713 5708 5704 5700 5696 5692 5688 5685 5681 5679 5676 5672 5669 5666 5663 5660 5658 5655 5652 5649 5647
5775 5771 5767 5764 5760 5756 5751 5747 5743 5739 5735 5730 5726 5722 5717 5713 5708 5704 5699 5694 5690 5686 5683 5679 5676 5673 5669 5666 5664 5661 5658 5655 5652 5649 5646 5643 5640 5637
5767 5763 5759 5755 5751 5747 5743 5739 5735 5731 5726 5722 5717 5713 5709 5704 5699 5695 5690 5686 5681 5677 5674 5671 5668 5664 5661 5658 5655 5652 5650 5647 5644 5641 5638 5635 5632 5629
5758 5754 5751 5747 5743 5739 5735 5731 5726 5722 5717 5713 5709 5705 5700 5696 5691 5687 5682 5678 5674 5670 5666 5663 5660 5657 5654 5651 5648 5645 5642 5639 5636 5633 5631 5627 5625 5622
Wind_Speed
18 18 18 19 19 19 19 19 20 20 21 22 22 22 21 21 22 22 23 23 23 24 24 25 25 25 26 26 27 28 29 29 30 31 31 31 31 32
18 18 18 19 19 19 19 20 20 21 21 22 23 23 24 23 23 24 25 25 25 25 26 27 28 28 29 29 31 31 32 33 33 33 33 33 33 33
18 18 18 19 19 19 20 21 21 22 22 23 23 23 24 24 24 25 26 26 27 27 28 28 30 31 31 31 31 32 33 33 33 33 33 34 34 34
18 18 18 19 20 21 21 21 22 23 23 23 23 25 25 25 26 27 27 27 28 28 28 29 31 32 31 32 33 33 34 34 35 35 35 34 34 35
18 18 19 19 20 21 21 22 23 24 24 24 24 24 25 26 27 27 28 28 29 30 30 31 32 32 32 33 34 35 36 36 36 35 35 35 35 36
18 19 19 19 20 22 22 23 24 24 25 25 25 26 26 27 26 27 27 28 29 30 31 31 32 32 32 33 34 35 35 35 35 35 36 36 36 37
18 19 19 20 21 23 24 25 25 25 26 26 26 27 27 27 28 28 28 29 30 31 31 31 31 32 32 32 32 32 33 34 35 36 37 37 37 37
19 20 21 21 22 23 23 24 25 25 26 27 27 28 28 28 28 29 29 29 30 30 31 31 31 32 32 33 33 34 34 34 35 36 37 38 38 38
20 21 22 23 23 24 25 25 26 26 27 27 28 28 28 27 28 29 29 30 31 31 31 31 31 32 33 34 34 35 35 36 36 36 37 38 38 39
21 22 23 24 25 25 26 27 27 27 28 28 28 28 28 28 28 29 30 30 31 32 33 33 33 34 34 34 34 34 35 35 36 37 38 38 39 40
23 23 24 25 26 26 27 28 28 29 29 28 28 29 29 29 29 30 30 31 32 33 34 34 34 34 34 34 34 34 35 36 36 37 38 39 39 40
24 25 26 26 27 27 28 28 29 29 29 29 29 30 30 31 32 32 33 33 34 34 34 35 34 34 34 34 34 34 35 35 36 36 37 38 38 39
25 26 26 27 27 28 28 28 29 29 30 30 31 31 32 32 33 34 35 35 35 35 35 35 34 34 34 33 33 34 34 35 35 35 36 36 37 37
25 26 27 27 27 28 28 30 31 31 32 33 33 34 34 34 35 35 35 35 35 35 35 35 35 35 36 36 35 35 36 36 36 36 36 36 36 36
27 27 27 28 28 29 30 31 32 33 34 34 35 35 35 35 35 35 35 35 35 34 34 35 35 35 36 36 36 35 35 35 36 36 35 34 35 35
27 28 28 29 29 30 31 32 32 33 34 35 35 35 36 36 35 34 34 34 34 34 34 34 34 35 35 35 35 35 35 35 35 35 34 34 34 35
28 28 29 29 30 31 32 33 34 34 34 35 36 36 36 35 35 35 35 35 34 35 35 35 35 35 35 35 34 34 34 34 34 33 33 33 33 33
29 29 30 30 32 33 33 34 34 35 35 36 36 35 35 35 35 36 35 35 36 36 35 35 35 35 35 34 34 34 33 33 33 32 33 32 32 32
30 30 31 32 33 33 34 34 35 35 35 35 35 35 35 36 36 36 36 36 36 36 35 34 34 33 33 32 32 32 32 31 31 31 32 32 32 31
31 31 32 33 33 33 34 34 35 35 35 35 35 35 36 36 36 36 36 36 35 34 33 32 32 32 31 31 30 30 29 29 29 30 30 31 31 31
31 32 32 33 33 33 34 34 35 35 35 35 35 35 36 36 36 35 35 34 33 32 31 31 30 30 30 30 29 29 28 28 28 29 29 29 29 30
32 32 32 32 33 33 33 34 34 35 35 35 35 35 35 35 34 34 33 32 31 30 29 29 28 28 28 28 28 28 28 28 28 28 28 29 28 28
32 32 32 32 33 33 33 34 34 34 34 34 33 33 33 33 32 32 31 30 29 28 27 27 26 27 27 27 26 26 26 26 26 26 27 27 27 27
Wind_Direction
286 285 282 283 282 282 283 283 284 284 284 285 285 285 285 284 282 281 281 279 279 278 278 278 278 279 280 280 279 276 277 277 277 276 274 274 273 273
286 287 286 286 285 284 285 286 286 285 286 285 285 286 285 285 284 283 283 279 279 279 278 278 278 278 280 279 279 278 277 277 277 276 275 273 273 275
286 287 286 286 288 290 288 287 289 291 291 289 285 286 284 284 284 284 285 281 279 280 280 279 280 280 279 279 279 279 279 278 277 277 277 276 274 273
288 287 286 286 287 290 290 290 291 292 292 293 292 291 289 287 286 286 286 285 282 283 284 282 282 282 281 279 279 278 279 279 278 277 277 277 276 274
292 292 291 290 290 292 294 293 293 294 294 294 295 296 294 293 292 291 290 288 285 285 284 283 284 282 282 281 281 280 278 278 278 278 278 277 276 275
291 293 294 294 294 294 293 293 295 296 297 297 296 296 295 295 294 292 291 290 289 288 287 285 285 285 285 284 283 282 281 280 279 279 278 277 276 275
290 291 294 295 296 297 297 296 295 296 297 298 297 296 295 294 294 293 292 291 291 291 290 289 289 288 287 286 286 285 284 283 281 280 279 278 277 276
291 291 293 295 298 299 300 299 298 298 299 299 298 296 295 294 293 294 293 292 291 292 293 293 292 291 290 289 286 285 284 283 282 281 282 281 280 279
296 295 296 296 298 299 300 300 299 299 299 298 298 297 296 295 294 294 293 293 292 293 294 294 293 292 291 289 287 285 284 283 282 281 281 281 280 279
297 297 298 297 300 301 301 301 300 300 299 299 299 298 297 296 296 296 294 294 293 294 295 295 294 292 291 290 288 287 285 284 283 282 281 281 280 279
298 298 298 299 299 300 300 300 300 300 299 299 299 300 299 298 298 298 297 295 295 295 295 296 295 294 293 292 290 287 286 285 285 285 283 282 281 279
301 300 300 300 300 301 301 301 301 301 300 300 300 300 300 299 298 298 297 296 296 296 296 295 294 293 293 292 291 290 288 288 288 288 286 284 283 282
304 304 304 304 303 303 303 303 303 303 302 302 302 302 301 300 300 299 298 297 296 296 296 295 294 294 293 292 291 291 290 290 290 290 289 287 286 286
307 307 305 305 305 305 306 305 305 306 305 303 302 302 301 301 300 299 299 299 298 297 297 295 294 293 293 292 292 292 292 291 292 291 291 290 288 287
306 306 305 305 305 306 306 306 306 306 306 306 304 302 301 302 301 299 299 298 298 297 296 296 295 295 294 293 292 292 292 291 291 292 291 291 290 289
306 305 305 306 306 306 307 306 306 307 306 306 304 303 303 302 302 301 300 299 298 298 297 296 296 295 294 293 293 294 294 293 292 292 293 293 292 290
306 305 305 305 306 306 306 306 307 307 307 306 304 304 304 303 302 301 300 299 298 298 297 296 296 296 295 295 295 295 295 295 294 293 292 293 292 292
306 306 305 305 306 306 306 306 307 307 307 305 305 305 305 304 303 302 301 300 300 299 298 297 297 296 296 296 296 296 295 295 295 294 294 294 294 293
306 306 306 306 306 306 306 307 307 307 307 306 306 307 306 306 305 304 303 302 301 300 299 299 298 297 298 299 298 298 297 296 296 296 296 295 295 295
305 305 306 306 307 306 306 306 307 307 307 307 307 307 308 308 307 306 305 304 302 301 299 299 299 300 301 301 300 299 298 297 297 298 298 298 298 297
305 305 306 306 306 306 306 307 307 307 307 308 308 308 308 308 309 308 308 307 306 303 302 301 301 302 303 303 302 301 299 298 298 299 300 300 300 300
305 305 305 306 306 307 307 308 308 308 308 308 309 309 309 310 311 311 311 311 310 308 306 304 303 304 304 304 303 302 301 301 301 301 302 302 302 303
305 306 306 305 306 307 308 308 309 310 309 309 310 311 311 312 312 313 314 313 312 310 309 307 306 306 306 306 306 305 304 304 305 304 303 303 304 304